Location: Newark
(32.2836°N, 83.4767°W)
Time: 01:21:06
(UTC+00:00)

N. Korean satellite - Visible Passes

Search period start: 18 January 2020 00:00
Search period end: 28 January 2020 00:00
Orbit: 454 x 508 km, 97.2° (Epoch: 17 January)

Date Brightness Start Highest point End Pass type
(mag) Time Alt. Az. Time Alt. Az. Time Alt. Az.
18 Jan 9.8 10:24:41 10° ENE 10:26:34 14° E 10:28:27 10° SE visible
18 Jan 7.6 11:57:00 10° NNW 11:59:54 24° WNW 12:02:49 10° SW visible
19 Jan 6.5 11:31:03 10° N 11:34:31 57° WNW 11:38:02 10° SSW visible
19 Jan 9.8 23:36:42 10° SW 23:38:34 14° W 23:40:27 10° WNW visible
20 Jan 7.2 11:05:34 10° NNE 11:09:04 56° E 11:12:36 10° S visible
21 Jan 9.0 10:40:36 10° NE 10:43:32 24° E 10:46:29 10° SSE visible
22 Jan 10.1 10:17:06 10° E 10:17:56 11° E 10:18:47 10° ESE visible
22 Jan 7.3 11:48:09 10° N 11:51:21 31° WNW 11:54:35 10° SW visible
23 Jan 6.4 11:22:22 10° N 11:25:56 78° WNW 11:29:33 10° SSW visible
23 Jan 9.6 23:27:29 10° SW 23:29:54 18° W 23:32:20 10° NW visible
24 Jan 7.9 10:57:02 10° NNE 11:00:27 41° E 11:03:55 10° S visible
25 Jan 9.5 10:32:19 10° NE 10:34:54 18° E 10:37:30 10° SE visible
25 Jan 8.0 12:05:32 10° NNW 12:08:08 19° WNW 12:10:45 10° WSW visible
26 Jan 6.9 11:39:21 10° N 11:42:46 42° WNW 11:46:14 10° SSW visible
26 Jan 10.4 23:46:15 10° WSW 23:46:51 10° W 23:47:27 10° W visible
27 Jan 6.7 11:13:43 10° NNE 11:17:20 78° E 11:20:59 10° S visible
